[[{"header":{"parameterUnit":"m.s-1","parameterCategory":1,"la1":30.2991,"la2":30.254,"lo1":-89.0895,"lo2":-89.0444,"dy":0.0017,"dx":0.0017,"nx":28,"ny":28,"refTime":"2024-08-22T21:00:00:Z","depth":0,"parameterNumber":2,"parameterNumberName":"U-component_of_WINDS"},"data":[0,0,0,0,0,0,0,0,0,0,0,0,0,0,0,0,0,0,0,0,0,0,0,0,0,0,0,0,0,0,0,0,0,0,0,0,0,0,0,0,0,0,0,0,0,0,0,0,0,0,0,0,0,0,0,0,0,0,-5.6571,-5.6572,0,-5.6619,-5.6619,-5.662,-5.6526,-5.6523,-5.652,-5.6517,-5.6569,-5.6573,-5.6577,0,0,0,0,0,0,0,0,0,0,0,0,0,-5.6403,-5.6407,-5.6571,-5.6572,-5.6572,-5.6619,-5.6619,-5.662,-5.6527,-5.6523,-5.652,-5.6516,-5.6568,-5.6573,-5.6578,0,0,0,0,0,0,0,0,0,0,0,0,0,-5.6466,-5.6408,-5.6571,-5.6531,-5.6528,-5.6619,-5.6619,-5.662,-5.6528,-5.6523,-5.6519,-5.6514,-5.6566,-5.6572,-5.6578,-5.671,0,0,-5.6598,-5.66,0,0,0,0,0,0,0,0,-5.6463,-5.6473,-5.6537,-5.6534,-5.6531,-5.6562,-5.6579,-5.665,-5.6529,-5.6528,-5.6517,-5.6512,-5.6571,-5.6576,-5.6595,-5.6712,-5.6715,-5.6598,-5.6602,-5.6605,-5.6607,0,0,0,0,0,0,0,-5.6459,-5.647,-5.659,-5.6538,-5.6534,-5.6513,-5.6516,-5.6592,-5.6575,-5.6528,-5.6521,-5.6528,-5.6568,-5.6589,-5.6596,-5.6715,-5.6598,-5.6604,-5.6608,-5.661,-5.6946,-5.6951,0,0,0,0,0,0,-5.6459,-5.6467,-5.6588,-5.6591,-5.6485,-5.6519,-5.6524,-5.6557,-5.6574,-5.6572,-5.6532,-5.6523,-5.6581,-5.6589,-5.6597,-5.6755,-5.6605,-5.6611,-5.6614,-5.6941,-5.6947,-5.6953,0,0,0,0,0,0,-5.6456,-5.647,-5.6586,-5.6527,-5.654,-5.6527,-5.6565,-5.656,-5.6581,-5.6577,-5.6573,-5.6557,-5.6577,-5.6588,-5.6683,-5.6755,-5.6614,-5.6619,-5.6935,-5.6943,-5.695,-5.707,0,0,0,0,0,0,-5.6451,-5.647,-5.6519,-5.6529,-5.6544,-5.6671,-5.6569,-5.6564,-5.6592,-5.6582,-5.6599,-5.6597,-5.6575,-5.6674,-5.669,-5.6761,-5.6624,-5.6929,-5.6939,-5.6948,-5.7059,-5.708,-5.7099,0,0,0,0,0,-5.6445,-5.655,-5.6522,-5.6537,-5.6605,-5.6675,-5.6684,-5.6654,-5.6598,-5.6648,-5.6646,-5.6597,-5.6745,-5.6685,-5.6701,-5.6776,-5.6924,-5.6936,-5.6947,-5.705,-5.7076,-5.7098,0,0,0,0,0,0,-5.6549,-5.6551,-5.6519,-5.663,-5.6653,-5.6659,-5.6721,-5.6682,-5.6722,-5.6711,-5.6674,-5.6679,-5.6782,-5.6788,-5.6721,-5.6906,-5.6825,-5.684,-5.6898,-5.6923,-5.6942,-5.6939,-5.663,0,0,0,0,0,-5.6584,-5.664,-5.6639,-5.6738,-5.6751,-5.6734,-5.6764,-5.674,-5.6762,-5.6772,-5.6776,-5.68,-5.6853,-5.6888,-5.6935,-5.7059,-5.7064,-5.7119,-5.7139,-5.7155,-5.7169,-5.7239,-5.7264,-5.6991,-5.6991,-5.699,0,0,-5.6659,-5.6667,-5.6704,-5.6759,-5.6774,-5.6834,-5.6743,-5.681,-5.6855,-5.6782,-5.6872,-5.6876,-5.6902,-5.7013,-5.7062,-5.7021,-5.7246,-5.717,-5.7183,-5.7188,-5.7253,-5.7279,-5.7302,-5.6998,-5.6997,-5.6996,0,0,-5.6826,-5.6836,-5.6921,-5.6938,-5.6962,-5.695,-5.6971,-5.6983,-5.6983,-5.7073,-5.702,-5.7074,-5.7163,-5.7185,-5.7207,-5.7385,-5.7343,-5.7401,-5.7505,-5.7573,-5.7594,-5.7613,-5.7679,-5.7703,-5.7415,-5.7416,-5.7416,0,-5.6915,-5.7003,-5.6969,-5.7041,-5.7067,-5.7004,-5.709,-5.7108,-5.7147,-5.7168,-5.7121,-5.7235,-5.7247,-5.7364,-5.7407,-5.7427,-5.7451,-5.74,-5.7594,-5.7612,-5.763,-5.7692,-5.7717,-5.7423,-5.7422,-5.7421,-5.742,0,-5.7113,-5.7176,-5.7241,-5.728,-5.7314,-5.7392,-5.7372,-5.7411,-5.7384,-5.7379,-5.7473,-5.7485,-5.7536,-5.7561,-5.7536,-5.7675,-5.765,-5.7599,-5.7518,-5.7664,-5.7722,-5.7745,-5.7433,-5.743,-5.7428,-5.7426,0,0,-5.7346,-5.7367,-5.7391,-5.741,-5.7432,-5.748,-5.7557,-5.7606,-5.7641,-5.767,-5.7736,-5.7814,-5.7768,-5.7794,-5.7771,-5.783,-5.7974,-5.7773,-5.7773,-5.7812,-5.8132,-5.8171,-5.8199,-5.7945,-5.795,-5.7953,-5.813,0,-5.7513,-5.7645,-5.7617,-5.7747,-5.7806,-5.7747,-5.7815,-5.7837,-5.7834,-5.7885,-5.7881,-5.7939,-5.7873,-5.7888,-5.7945,-5.7944,-5.8038,-5.7931,-5.8008,-5.8011,-5.8005,-5.8229,-5.827,-5.8436,-5.8153,-5.8156,-5.8159,0,-5.7725,-5.7763,-5.7899,-5.7915,-5.7938,-5.7999,-5.8043,-5.8091,-5.8116,-5.811,-5.8141,-5.8107,-5.8185,-5.8102,-5.8211,-5.814,-5.817,-5.8175,-5.818,-5.8188,-5.8095,-5.8244,-5.8488,-5.8514,-5.8194,-5.8191,-5.8189,0,-5.7884,-5.7969,-5.8062,-5.8079,-5.8099,-5.8144,-5.8154,-5.8175,-5.8207,-5.8246,-5.8267,-5.8314,-5.8341,-5.838,-5.8361,-5.8302,-5.8475,-5.839,-5.8475,-5.8476,-5.8515,-5.8513,-5.8769,-5.8531,-5.8531,-5.8531,-5.853,0,-5.8075,-5.8161,-5.8134,-5.8191,-5.8287,-5.8255,-5.8351,-5.8355,-5.8374,-5.8433,-5.8385,-5.8441,-5.8412,-5.8467,-5.8452,-5.8547,-5.8559,-5.8558,-5.8553,-5.8563,-5.8564,-5.8583,-5.8572,-5.8537,-5.8536,-5.8534,-5.8533,0,-5.8268,-5.8254,-5.8351,-5.8363,-5.8368,-5.8438,-5.8449,-5.8503,-5.8497,-5.8572,-5.8588,-5.858,-5.8642,-5.8626,-5.8694,-5.8685,-5.8805,-5.8785,-5.8797,-5.8792,-5.8879,-5.8872,-5.9158,-5.9196,-5.8932,-5.8935,-5.8937,0,-5.8392,-5.8456,-5.8475,-5.8511,-5.8525,-5.8583,-5.8616,-5.8588,-5.8625,-5.866,-5.8711,-5.8769,-5.8814,-5.8917,-5.8918,-5.897,-5.8953,-5.9049,-5.896,-5.8969,-5.8957,-5.8954,-5.8962,-5.9068,-5.9071,-5.9073,-5.9075,0,-5.8613,-5.8603,-5.8651,-5.8699,-5.8739,-5.8775,-5.8807,-5.8839,-5.8814,-5.8858,-5.8921,-5.8956,-5.9026,-5.9085,-5.9134,-5.9147,-5.9109,-5.9103,-5.9126,-5.9137,-5.9143,-5.9144,-5.8847,-5.9097,-5.9095,-5.9093,-5.9092,-5.9091,-5.8776,-5.8832,-5.8855,-5.8912,-5.8933,-5.8964,-5.9017,-5.9018,-5.907,-5.9124,-5.9105,-5.9178,-5.9204,-5.9266,-5.9285,-5.9343,-5.9307,-5.9339,-5.9348,-5.9357,-5.9369,-5.9132,-5.9351,-5.9351,-5.935,-5.935,-5.9349,0,-5.8997,-5.9009,-5.9061,-5.9108,-5.9153,-5.9112,-5.9145,-5.9186,-5.9251,-5.9278,-5.9324,-5.9398,-5.9456,-5.9462,-5.9517,-5.9563,-5.9547,-5.9579,-5.9576,-5.958,-5.9397,-5.9372,-5.9591,-5.9591,-5.9591,-5.9591,-5.9591,-5.9591,-5.9117,-5.9211,-5.9204,-5.9309,-5.932,-5.9391,-5.9414,-5.9444,-5.9465,-5.955,-5.9598,-5.9601,-5.9621,-5.9678,-5.973,-5.973,-5.9754,-5.9793,-5.9788,-5.9617,-5.9593,-5.957,-5.9547,-5.9798,-5.9798,-5.9966,-5.9968,-5.9969]},{"header":{"parameterUnit":"m.s-1","parameterCategory":1,"la1":30.2991,"la2":30.254,"lo1":-89.0895,"lo2":-89.0444,"dy":0.0017,"dx":0.0017,"nx":28,"ny":28,"refTime":"2024-08-22T21:00:00:Z","depth":0,"parameterNumber":3,"parameterNumberName":"V-component_of_WINDS"},"data":[0,0,0,0,0,0,0,0,0,0,0,0,0,0,0,0,0,0,0,0,0,0,0,0,0,0,0,0,0,0,0,0,0,0,0,0,0,0,0,0,0,0,0,0,0,0,0,0,0,0,0,0,0,0,0,0,0,0,-0.7933,-0.7932,0,-0.7915,-0.7915,-0.7915,-0.7859,-0.7858,-0.7856,-0.7855,-0.784,-0.7841,-0.7842,0,0,0,0,0,0,0,0,0,0,0,0,0,-0.792,-0.792,-0.7933,-0.7932,-0.7932,-0.7915,-0.7915,-0.7915,-0.7859,-0.7858,-0.7856,-0.7855,-0.784,-0.7841,-0.7842,0,0,0,0,0,0,0,0,0,0,0,0,0,-0.7916,-0.792,-0.7933,-0.7902,-0.7899,-0.7915,-0.7915,-0.7915,-0.7859,-0.7857,-0.7856,-0.7854,-0.784,-0.7841,-0.7842,-0.7887,0,0,-0.7846,-0.7846,0,0,0,0,0,0,0,0,-0.7916,-0.7917,-0.7907,-0.7904,-0.7901,-0.7887,-0.7905,-0.7906,-0.786,-0.7875,-0.7855,-0.7853,-0.7858,-0.7857,-0.7858,-0.7887,-0.7886,-0.7846,-0.7847,-0.7847,-0.7847,0,0,0,0,0,0,0,-0.7917,-0.7917,-0.7926,-0.7907,-0.7903,-0.789,-0.7888,-0.7905,-0.7877,-0.7873,-0.7869,-0.7868,-0.7856,-0.7857,-0.7858,-0.7886,-0.7846,-0.7847,-0.7848,-0.7848,-0.7951,-0.7953,0,0,0,0,0,0,-0.7921,-0.7918,-0.7926,-0.7925,-0.7904,-0.7892,-0.7889,-0.7894,-0.7877,-0.7872,-0.7869,-0.7865,-0.7856,-0.7856,-0.7857,-0.791,-0.7847,-0.7848,-0.7849,-0.7949,-0.7951,-0.7953,0,0,0,0,0,0,-0.7921,-0.7922,-0.7927,-0.792,-0.792,-0.7894,-0.79,-0.7894,-0.7896,-0.7874,-0.7869,-0.7876,-0.7855,-0.7855,-0.788,-0.7908,-0.7849,-0.785,-0.7946,-0.7949,-0.7952,-0.8015,0,0,0,0,0,0,-0.7921,-0.7923,-0.7939,-0.7921,-0.7921,-0.795,-0.7901,-0.7895,-0.7898,-0.7892,-0.7879,-0.7875,-0.7853,-0.7879,-0.7881,-0.7909,-0.7851,-0.7944,-0.7948,-0.7951,-0.8011,-0.802,-0.8028,0,0,0,0,0,-0.792,-0.7958,-0.794,-0.7942,-0.7941,-0.7952,-0.7952,-0.7926,-0.79,-0.7917,-0.7903,-0.7875,-0.7904,-0.7882,-0.7884,-0.7913,-0.7942,-0.7947,-0.7951,-0.8007,-0.8018,-0.8028,0,0,0,0,0,0,-0.7982,-0.7955,-0.7935,-0.7968,-0.7962,-0.7943,-0.7963,-0.7939,-0.7941,-0.7936,-0.7904,-0.7902,-0.7932,-0.7924,-0.7899,-0.7955,-0.7918,-0.7924,-0.796,-0.7971,-0.7979,-0.7982,-0.7852,0,0,0,0,0,-0.7998,-0.8009,-0.7986,-0.8017,-0.8015,-0.799,-0.7994,-0.7974,-0.7967,-0.7965,-0.7953,-0.7948,-0.7956,-0.7963,-0.7969,-0.8008,-0.8005,-0.8029,-0.8038,-0.8045,-0.8051,-0.8072,-0.8083,-0.7968,-0.7968,-0.7968,0,0,-0.8034,-0.8021,-0.803,-0.8029,-0.8022,-0.8035,-0.7988,-0.8004,-0.8013,-0.7968,-0.7991,-0.7981,-0.7974,-0.8007,-0.802,-0.8002,-0.8081,-0.8051,-0.8057,-0.8059,-0.8078,-0.8089,-0.8099,-0.7971,-0.7971,-0.797,0,0,-0.8107,-0.8097,-0.8122,-0.8116,-0.8107,-0.8089,-0.8095,-0.8078,-0.807,-0.8092,-0.8059,-0.8069,-0.8084,-0.808,-0.8081,-0.815,-0.8126,-0.8153,-0.82,-0.8221,-0.823,-0.8238,-0.8265,-0.8275,-0.8158,-0.8158,-0.8158,0,-0.8153,-0.817,-0.8139,-0.8157,-0.8157,-0.8115,-0.8141,-0.8137,-0.813,-0.8132,-0.811,-0.8127,-0.8119,-0.8151,-0.8168,-0.8169,-0.8176,-0.8156,-0.8231,-0.8239,-0.8246,-0.8271,-0.8281,-0.8162,-0.8161,-0.8161,-0.8161,0,-0.8229,-0.8241,-0.8263,-0.8256,-0.8259,-0.8281,-0.8254,-0.826,-0.8239,-0.8225,-0.8248,-0.8236,-0.824,-0.8245,-0.8226,-0.8275,-0.8263,-0.8237,-0.8199,-0.8261,-0.8284,-0.8293,-0.8167,-0.8166,-0.8165,-0.8164,0,0,-0.8342,-0.8316,-0.8325,-0.8322,-0.8307,-0.8317,-0.8336,-0.8338,-0.8346,-0.8342,-0.8359,-0.8371,-0.8346,-0.8346,-0.8325,-0.8344,-0.8402,-0.8315,-0.8314,-0.8334,-0.8457,-0.8479,-0.8491,-0.8384,-0.8385,-0.8387,-0.8458,0,-0.8413,-0.8445,-0.8416,-0.8454,-0.8466,-0.8425,-0.8442,-0.8435,-0.8421,-0.843,-0.8414,-0.8424,-0.839,-0.839,-0.8406,-0.8391,-0.8427,-0.8385,-0.8401,-0.8402,-0.8407,-0.8502,-0.8526,-0.8594,-0.8467,-0.8468,-0.8469,0,-0.85,-0.8499,-0.8538,-0.8521,-0.8524,-0.854,-0.854,-0.8548,-0.854,-0.8528,-0.8528,-0.8502,-0.8521,-0.8482,-0.8508,-0.8481,-0.8485,-0.8479,-0.8481,-0.8484,-0.8442,-0.8511,-0.8615,-0.8627,-0.8483,-0.8482,-0.8481,0,-0.8582,-0.859,-0.8614,-0.8612,-0.8592,-0.8605,-0.8597,-0.8586,-0.8589,-0.8589,-0.8591,-0.8593,-0.8595,-0.8598,-0.8573,-0.8547,-0.8604,-0.8562,-0.8596,-0.8597,-0.8613,-0.8613,-0.8723,-0.8611,-0.8611,-0.8611,-0.8611,0,-0.8665,-0.8691,-0.8651,-0.8667,-0.8695,-0.8661,-0.869,-0.8678,-0.8669,-0.8682,-0.8645,-0.8659,-0.8624,-0.8634,-0.8614,-0.8641,-0.8641,-0.8634,-0.8629,-0.8639,-0.864,-0.8643,-0.8639,-0.8614,-0.8613,-0.8612,-0.8612,0,-0.8763,-0.8736,-0.8761,-0.8738,-0.8733,-0.8755,-0.8737,-0.8751,-0.8733,-0.875,-0.8752,-0.8726,-0.8735,-0.871,-0.8716,-0.8703,-0.8741,-0.8727,-0.8744,-0.8741,-0.8778,-0.8776,-0.8896,-0.8911,-0.8788,-0.8789,-0.879,0,-0.8819,-0.8838,-0.8818,-0.8823,-0.8817,-0.8826,-0.8829,-0.8796,-0.8801,-0.8792,-0.8807,-0.8813,-0.8817,-0.8834,-0.8816,-0.8821,-0.8808,-0.885,-0.8809,-0.8819,-0.8812,-0.8812,-0.8815,-0.886,-0.8861,-0.8862,-0.8863,0,-0.8923,-0.8909,-0.8913,-0.8914,-0.8917,-0.8916,-0.8912,-0.8919,-0.8884,-0.8891,-0.89,-0.8902,-0.8908,-0.8915,-0.8915,-0.8908,-0.8881,-0.8876,-0.8884,-0.8896,-0.8906,-0.8904,-0.877,-0.8874,-0.8873,-0.8872,-0.8872,-0.8871,-0.9003,-0.9019,-0.9006,-0.9013,-0.9006,-0.9003,-0.9015,-0.8999,-0.9005,-0.9006,-0.8986,-0.9,-0.899,-0.8988,-0.8983,-0.8994,-0.8975,-0.8987,-0.899,-0.8994,-0.9002,-0.8902,-0.8993,-0.8993,-0.8992,-0.8992,-0.8992,0,-0.9108,-0.9097,-0.9103,-0.9098,-0.9104,-0.9074,-0.9069,-0.9076,-0.9087,-0.908,-0.9084,-0.9094,-0.9101,-0.9082,-0.9086,-0.9099,-0.9086,-0.9101,-0.9101,-0.9101,-0.9017,-0.901,-0.9111,-0.9111,-0.9111,-0.9111,-0.9111,-0.9111,-0.9163,-0.9187,-0.9171,-0.9192,-0.9181,-0.9193,-0.9193,-0.919,-0.9184,-0.9197,-0.9202,-0.9189,-0.9178,-0.918,-0.9186,-0.918,-0.9184,-0.9204,-0.9195,-0.9118,-0.9106,-0.9095,-0.9089,-0.9205,-0.9205,-0.9278,-0.9278,-0.9279]}]]